sat.trackr.live / text

‹ back to catalog

STARLINK-4597

NORAD 53640 · 2022-104BE

PAYLOAD ACTIVE UNKNOWN

§ Identity

Operator
Country
US
Launch date
2022-08-28
Launch site
AFETR
Launch vehicle
Mass (kg)
RCS (m²)

Purposes: comms

External: N2YO · Heavens-Above · Gunter

§ Orbital elements

Epoch: 2026-05-24T23:08:00.240288Z

Period
95.44 min
Inclination
53.2144°
Eccentricity
0.0003020
Mean motion
15.08726270 rev/d
Perigee alt
538.0 km
Apogee alt
542.2 km
Semi-major
6,918.2 km
B*
2.2063e-3
RAAN
241.4609°
Arg perigee
80.6582°
Mean anomaly
279.4751°
Rev number
20,774

§ Raw data

STARLINK-45971 53640U 22104BE  26144.96389167  .00034893  00000+0  22063-2 0  99942 53640  53.2144 241.4609 0003020  80.6582 279.4751 15.08726270207742

JSON: /api/v1/satellites/53640 · /tle

For live sub-satellite position, see the globe view (requires WebGL).

§ Visibility from observer

Set your observer location to see the next 7 days of passes ≥ 10°. The values pass through the URL so the page stays shareable.

No JS? Fill the form by hand. The geolocation button needs JavaScript.